STARLINK-33833, 63498

Orbit data source: Space-Track

STARLINK-33833, 63498 is a payload satellite owned by SpaceX/Seattle (US) in LEO that was launched on Mon, 07 Apr 2025 UTC via an FALCON 9 launch vehicle from the Air Force Western Test Range (AFWTR). Payload-class satellites include a variety of spacecraft equipped with specific instruments for various scientific and technological missions. These include communications satellites like Starlink; space stations such as the ISS; scientific satellites like the Hubble; Earth observation satellites from companies like Planet Labs, Umbra, and HawkEye 360; GPS; miniature CubeSats for education and research; and military/defense satellites.

Loading next visibility...
Identifier
63498, 2025-071F
Orbit
LEO
Last TLE update
9 hours ago
Origin
Manufacturer
SpaceX/Seattle
Mission
Operational Commercial Communications
Bus & Motor
STARLINK V2MO, Unknown motor
Mass
575 kg wet, ~530 kg dry
Launch date (UTC)
2025-04-07 (3 months ago)
Launch vehicle
FALCON 9
Launch site
Air Force Western Test Range (AFWTR)
Object type
Payload
Rocket body
Debris
Shape & HBR
Box + 1 Pan, 29 m
Radar Cross Section
41.120 m², Large (>1 m²)

Expand to show TLE details & history

TLE from 9 hours ago
0 STARLINK-33833
1 63498U 25071F   25182.51476392  .00046702  00000-0  11694-2 0  9992
2 63498  53.1572 227.3395 0001133  85.3816 274.7318 15.39645929 14308
Epoch: 2025-07-01T12:21Z
TLE epoch observation values (Epoch: 2025-07-01T12:21:15.602Z)
Latitude
-0.00005°
Longitude
122.21534°
Altitude
447.995 km
Speed
7.645 km/s
True Right ascension
15h 09m 21s
True Declination
0° 00' 00"
Sunlit
Object was in full shadow at epoch
Visualization orbit readout
Latitude
-4.87435°
Longitude
116.74143°
Altitude
448.746 km
Speed
7.644 km/s
Apparent Right ascension
17h 21m 29s
Apparent Declination
-30° 50' 11"
Sunlit
Object is in full shadow
Visualization observer readout
Local Sidereal Time
09:20:49
Azimuth
98.903° ESE
Elevation
-41.288°
Doppler factor
1
Orbital elements
Apogee altitude
448.187 km
Perigee altitude
446.64 km
Semi-major axis
6,825.55 km
Eccentricity
0.00011
Inclination
53.1572°
RAAN
227.3395°
Arg. of periapsis
85.3816°
True anomaly
Unknown
Mean anomaly
274.7318°
Eccentric anomaly
Unknown
Mean motion
3.8489 °/min
Orbital period
93.53 mins
BSTAR
0.0011694
Loading maneuver chart data...
Loading SW <> Apogee altitude chart data...
Loading historical data...
Loading historical data...
Loading historical data...
Loading historical data...
Loading historical data...
Loading historical data...
Loading historical data...

STARLINK-33833 Visibility forecast

Observer location: undefined°, undefined°

Span
Click to sort rows by Start time (UTC) header in descending order
Start Az.
Max El. time (UTC)
Max El. Az.
Max El.
End time (UTC)
End Az.
5 mins2025-07-02 05:40:31.917Z223.776° SW2025-07-02 05:43:31.917Z69.885° E41.478°2025-07-02 05:45:31.917Z53.299° ENE
5 mins2025-07-02 12:13:31.917Z322.346° NNW2025-07-02 12:15:31.917Z35.607° NE41.237°2025-07-02 12:18:31.917Z117.713° SE
|